DAL1515 KLAX-KLAS

Flight info

Callsign DAL1515
Flight time N/A
Altitude 29000
Route ORCKA5 MISEN RNDRZ4
Aircraft B738/M-SDE2E3FGHIRWXY/LB1

Departure

Time 2026-05-08 00:26
Airport Los Angeles International Airport (KLAX)

Arrival

Time N/A
Airport Harry Reid International Airport (KLAS)
Time Latitude Longitude Altitude Speed Heading
2026-05-07 23:48 33.94660 -118.40331 92 ft 0 kts 263°
2026-05-07 23:48 33.94659 -118.40334 93 ft 0 kts 263°
2026-05-08 00:15 33.94660 -118.40331 93 ft 3 kts 263°
2026-05-08 00:15 33.94662 -118.40299 93 ft 4 kts 272°
2026-05-08 00:16 33.94658 -118.40267 92 ft 4 kts 292°
2026-05-08 00:16 33.94645 -118.40245 92 ft 3 kts 348°
2026-05-08 00:16 33.94641 -118.40244 92 ft 0 kts 353°
2026-05-08 00:18 33.94680 -118.40250 93 ft 11 kts 352°
2026-05-08 00:19 33.94728 -118.40258 93 ft 0 kts 352°
2026-05-08 00:19 33.94731 -118.40258 94 ft 2 kts 352°
2026-05-08 00:19 33.94777 -118.40266 94 ft 11 kts 352°
2026-05-08 00:20 33.94863 -118.40281 94 ft 14 kts 20°
2026-05-08 00:20 33.94911 -118.40153 93 ft 20 kts 83°
2026-05-08 00:20 33.94920 -118.40055 93 ft 11 kts 83°
2026-05-08 00:20 33.94925 -118.39994 92 ft 2 kts 83°
2026-05-08 00:21 33.94929 -118.39971 92 ft 5 kts 76°
2026-05-08 00:21 33.94948 -118.39932 94 ft 0 kts 41°
2026-05-08 00:23 33.94948 -118.39931 92 ft 1 kts 41°
2026-05-08 00:23 33.94990 -118.39911 93 ft 13 kts 359°
2026-05-08 00:24 33.95041 -118.39973 93 ft 11 kts 258°
2026-05-08 00:24 33.95040 -118.39979 93 ft 0 kts 258°
2026-05-08 00:25 33.95040 -118.39980 92 ft 1 kts 258°
2026-05-08 00:25 33.95021 -118.40152 97 ft 52 kts 263°
2026-05-08 00:25 33.94948 -118.40863 97 ft 116 kts 263°
2026-05-08 00:25 33.94839 -118.42029 215 ft 155 kts 267°
2026-05-08 00:26 33.94828 -118.43320 880 ft 159 kts 270°
2026-05-08 00:26 33.94738 -118.44656 1685 ft 153 kts 263°
2026-05-08 00:26 33.94630 -118.45931 2447 ft 159 kts 263°
2026-05-08 00:26 33.94474 -118.47388 2720 ft 191 kts 264°
2026-05-08 00:27 33.94312 -118.49084 2922 ft 215 kts 264°
2026-05-08 00:27 33.94112 -118.50918 3223 ft 229 kts 263°
2026-05-08 00:27 33.93883 -118.52848 3754 ft 233 kts 263°
2026-05-08 00:27 33.93666 -118.54788 4227 ft 237 kts 263°
2026-05-08 00:28 33.93439 -118.56744 4795 ft 238 kts 259°
2026-05-08 00:28 33.92641 -118.58492 4987 ft 241 kts 226°
2026-05-08 00:28 33.91207 -118.59537 5004 ft 251 kts 202°
2026-05-08 00:28 33.89453 -118.59797 4989 ft 260 kts 176°
2026-05-08 00:29 33.87730 -118.59050 4998 ft 277 kts 148°
2026-05-08 00:29 33.86376 -118.57333 4979 ft 290 kts 120°
2026-05-08 00:29 33.85796 -118.55018 5003 ft 293 kts 91°
2026-05-08 00:29 33.86217 -118.52663 5009 ft 288 kts 59°
2026-05-08 00:30 33.87450 -118.50806 5010 ft 284 kts 43°
2026-05-08 00:30 33.88834 -118.49109 5003 ft 284 kts 43°
2026-05-08 00:30 33.90206 -118.47396 5001 ft 284 kts 44°
2026-05-08 00:30 33.91561 -118.45666 4994 ft 284 kts 44°
2026-05-08 00:31 33.92905 -118.43926 4996 ft 284 kts 46°
2026-05-08 00:31 33.94107 -118.42031 5000 ft 286 kts 53°
2026-05-08 00:31 33.95211 -118.40040 5013 ft 286 kts 54°
2026-05-08 00:31 33.96318 -118.38018 5411 ft 291 kts 54°
2026-05-08 00:32 33.97441 -118.35996 6245 ft 291 kts 53°
2026-05-08 00:32 33.98568 -118.33989 7120 ft 289 kts 54°
2026-05-08 00:32 33.99564 -118.32226 7796 ft 290 kts 53°